Wind_Speed
8 8 5 2 3 3 2 3 1 5 6 2 3 2 1 5 2 3 10 9 18 17 16 14 15 14 14 14 16 16 16 15 15 16 18 19 22 22 20 20 19 20 19 19 18 18 18 18 19
8 5 1 0 4 5 2 3 6 5 4 8 6 3 3 3 3 6 14 14 18 17 16 15 14 15 15 17 16 16 16 18 17 18 18 20 19 19 17 18 20 19 17 17 17 16 17 18 18
4 4 2 2 2 5 1 4 7 7 7 4 4 2 1 3 3 14 7 21 18 16 15 15 15 15 16 18 16 16 17 17 18 18 18 18 18 19 18 15 15 16 17 16 16 15 15 16 16
1 2 2 5 4 1 1 2 6 12 2 2 3 6 4 1 9 6 18 20 18 15 15 17 15 15 16 16 14 17 16 17 18 17 18 17 18 17 15 14 13 15 15 15 16 14 13 13 14
3 1 3 4 2 1 3 2 10 12 6 5 3 5 3 7 3 12 18 18 18 16 14 15 15 16 16 16 18 18 15 18 17 18 19 18 18 16 15 12 14 14 14 14 14 14 13 13 14
2 1 4 7 5 3 3 5 11 7 5 6 4 6 5 4 9 17 18 17 16 16 15 15 15 14 15 15 16 15 13 17 19 18 16 15 15 13 12 13 14 14 13 13 13 13 13 13 13
1 3 6 3 4 3 3 9 12 8 7 5 5 6 4 6 10 16 16 15 14 14 15 15 14 13 14 13 14 13 13 16 20 19 17 14 14 14 14 14 13 13 12 11 11 12 11 13 13
2 2 5 3 4 4 6 8 4 8 6 5 4 4 4 13 15 15 14 14 14 14 16 15 14 12 12 11 10 12 13 15 17 19 17 16 14 13 12 12 12 11 10 9 10 10 11 11 11
2 5 7 6 5 2 9 8 2 1 7 4 5 1 2 22 20 17 14 12 11 12 15 15 14 12 11 10 10 11 12 13 14 15 14 12 10 10 9 9 9 9 8 8 8 8 9 9 10
4 7 7 1 2 2 8 8 10 6 6 6 6 5 14 20 22 18 17 16 15 14 17 16 18 13 12 10 10 9 11 10 9 10 9 8 8 8 8 8 7 7 7 6 7 7 7 7 6
5 10 5 3 0 2 3 6 6 7 8 10 13 14 19 19 20 20 18 16 16 17 19 20 20 14 12 12 11 9 9 9 9 10 9 8 8 7 6 5 6 6 7 5 4 5 5 6 5
11 3 4 4 2 1 1 3 5 13 2 3 6 19 23 22 23 23 21 18 19 18 21 21 22 17 14 12 11 10 9 9 9 8 9 8 6 6 6 5 6 5 4 4 3 3 4 5 6
15 9 6 6 7 3 1 5 6 10 5 2 12 18 19 23 24 22 21 19 18 18 22 23 22 18 17 16 14 13 11 10 9 9 9 7 6 6 5 5 4 3 3 2 2 3 4 4 5
12 10 7 5 5 3 3 3 3 2 8 6 13 16 17 22 26 23 20 21 20 19 19 21 23 21 18 17 16 13 12 11 11 9 7 8 6 5 4 4 3 2 1 1 2 3 3 4 5
5 12 6 11 7 3 2 5 8 2 8 9 12 14 16 20 23 25 26 23 23 20 19 20 20 20 19 17 16 15 15 13 10 9 9 9 7 5 4 3 2 2 0 0 2 4 6 5 7
8 7 15 7 9 6 6 14 14 4 9 12 12 12 14 18 26 25 25 24 22 22 24 22 21 22 20 15 14 13 13 12 11 10 9 9 8 6 4 3 2 2 2 2 2 4 6 6 7
4 12 17 11 4 8 8 10 7 1 7 12 12 13 14 15 21 24 24 25 24 24 22 23 23 22 21 18 15 13 12 13 12 11 10 10 9 6 6 4 4 4 4 4 4 6 6 8 9
9 13 7 18 6 8 21 20 15 12 8 12 12 12 14 15 19 24 24 24 23 24 23 22 22 22 20 16 15 14 13 13 13 13 14 11 10 10 8 5 6 6 5 5 6 8 8 8 7
15 15 19 9 5 8 20 22 21 19 11 13 13 14 15 16 19 22 23 23 23 22 23 24 23 23 21 19 17 16 17 17 16 16 17 18 17 15 13 12 10 9 9 9 7 7 7 7 6
10 14 14 6 3 6 12 18 21 23 22 16 16 16 17 14 16 21 24 27 27 27 26 25 25 24 25 22 21 17 19 19 19 20 20 19 19 19 17 17 16 14 11 10 9 8 7 5 5
11 18 15 5 4 1 3 14 24 26 26 24 19 18 14 18 19 18 24 29 28 29 29 28 28 27 26 25 21 18 15 13 16 17 21 21 20 20 21 20 18 16 14 12 10 9 7 4 3
8 4 7 10 5 4 7 8 16 17 23 24 20 18 18 18 19 18 25 29 32 32 28 29 29 29 28 27 25 26 24 22 22 22 24 23 22 21 22 21 19 17 14 14 12 10 9 7 4
3 9 8 4 4 2 5 5 10 11 17 18 25 22 21 20 20 21 28 32 33 30 33 32 31 30 29 30 29 28 27 25 21 23 30 25 22 23 22 21 18 17 16 15 14 11 9 7 5
16 12 13 7 3 5 12 10 16 15 17 15 19 21 21 21 20 22 29 26 29 30 31 32 33 33 33 33 34 32 30 28 24 22 29 30 26 22 22 20 19 18 17 15 15 11 9 9 8
8 11 3 2 4 8 2 13 21 11 17 19 19 19 18 18 18 18 18 25 28 32 34 34 35 36 36 36 35 36 34 32 30 28 26 32 29 26 24 22 21 20 18 17 15 11 11 10 11
7 8 6 9 7 6 2 10 5 13 18 18 14 14 12 16 14 16 20 27 31 35 36 36 36 36 36 36 37 36 36 34 33 30 26 31 35 31 29 26 23 21 20 18 15 13 14 14 13
5 5 3 4 2 1 6 7 10 16 14 11 16 18 16 14 12 14 18 24 28 29 35 39 36 35 35 37 34 34 34 34 31 29 29 28 35 34 30 28 26 24 21 19 16 16 17 15 14
13 13 5 2 5 7 9 7 9 11 13 16 14 16 17 17 11 11 11 16 18 19 22 25 30 34 36 34 34 33 32 32 29 27 29 31 34 33 31 31 28 26 23 19 19 20 18 16 14
7 6 2 1 3 5 5 7 4 8 10 9 7 6 9 11 11 10 10 14 15 18 21 24 27 30 31 31 29 28 29 32 32 31 34 33 35 36 35 33 31 28 25 22 23 21 20 17 15
4 9 9 7 6 5 5 12 5 3 3 3 8 9 8 7 9 8 11 13 15 19 21 25 24 26 26 26 25 28 31 32 35 36 36 34 38 39 38 35 33 30 27 27 26 24 21 19 17
Wind_Direction
348 346 351 271 230 253 190 144 122 157 156 89 107 222 159 27 339 21 137 132 142 142 146 140 141 141 130 118 111 119 125 116 108 106 106 106 106 104 107 101 91 91 87 86 85 80 75 72 68
354 0 1 169 240 235 155 146 179 149 110 128 116 138 164 96 65 110 141 144 145 144 145 142 144 137 135 130 123 117 121 117 112 108 110 108 108 112 103 102 96 92 89 85 82 79 75 73 68
9 27 250 203 225 244 283 181 140 126 129 159 134 16 57 98 114 150 141 148 146 144 147 152 145 136 130 137 133 124 117 120 116 112 113 112 109 104 100 102 99 91 87 84 82 83 79 73 70
357 145 132 238 192 162 89 132 154 149 171 185 156 118 117 301 151 164 150 151 150 151 151 157 150 141 139 138 136 130 122 121 118 115 118 115 109 110 108 104 105 90 86 84 82 84 79 75 70
40 198 191 212 197 159 221 213 176 168 145 156 186 133 85 142 170 151 153 154 154 152 155 156 156 148 142 140 137 132 127 128 126 124 117 110 115 117 111 106 96 97 90 87 82 79 76 72 68
173 265 201 211 193 186 230 190 171 176 154 146 181 138 130 144 154 154 157 157 155 151 156 161 158 153 147 150 146 142 132 131 131 119 110 118 114 123 116 100 96 98 94 87 82 78 73 68 65
184 207 208 208 227 218 187 166 184 172 161 170 130 153 112 173 165 154 159 161 159 157 157 161 155 158 152 154 160 150 137 127 135 128 124 115 120 110 108 105 105 98 94 89 80 76 75 68 66
177 236 189 192 206 220 151 173 201 189 157 117 188 181 169 184 166 153 153 159 160 160 160 160 152 152 152 157 161 156 147 136 132 137 137 124 123 112 109 100 106 104 100 91 81 72 69 66 64
161 215 212 208 194 187 157 183 172 73 137 169 168 143 114 155 161 149 152 157 159 162 161 156 153 150 156 155 159 146 146 137 132 139 145 126 118 111 104 116 108 104 99 91 82 68 69 67 60
172 226 201 39 337 354 182 204 165 178 164 188 177 133 149 153 157 152 167 172 172 173 169 165 169 156 158 159 149 147 142 144 142 139 139 131 127 131 126 119 111 102 98 98 84 69 67 60 52
157 222 159 51 19 303 196 214 183 185 202 205 200 164 169 160 166 169 180 183 181 175 177 174 172 167 166 165 161 159 158 154 154 150 148 144 134 129 127 116 109 102 97 92 78 59 55 54 46
190 198 180 134 41 168 167 149 212 222 239 350 188 164 168 171 180 179 181 188 187 183 181 179 181 173 171 171 169 170 168 169 162 160 155 150 139 136 133 127 117 106 97 87 72 53 46 32 20
218 177 151 145 88 80 94 255 240 239 247 351 159 161 176 181 184 185 192 185 192 193 188 184 184 180 177 175 178 177 178 175 173 166 165 154 150 150 141 134 125 116 101 89 55 33 16 8 6
196 182 166 181 115 70 8 327 254 244 174 161 174 179 182 191 189 181 194 189 193 198 199 192 188 184 183 184 183 182 181 180 178 178 180 175 166 160 155 148 152 143 98 57 45 27 356 347 351
160 184 192 205 179 92 339 257 236 279 186 188 198 192 186 198 192 196 189 193 187 195 199 202 197 193 190 192 188 185 186 185 187 188 190 187 177 181 176 179 179 175 187 81 40 4 339 332 330
192 218 203 171 176 171 351 273 286 227 215 206 203 203 197 202 201 204 194 192 191 191 196 199 200 202 202 200 199 196 194 190 192 196 197 199 200 196 192 197 215 221 233 245 272 332 317 323 331
212 210 216 209 222 183 208 271 280 69 256 246 210 207 209 205 210 207 200 193 191 192 198 199 200 202 205 204 203 206 204 200 198 198 200 205 205 216 228 229 231 254 241 248 275 304 311 323 327
169 196 204 216 189 212 229 245 269 276 254 252 256 227 217 213 215 210 205 200 195 195 197 202 203 204 203 206 206 206 213 213 207 207 211 213 215 215 218 232 232 231 247 253 277 284 308 310 325
199 204 211 215 130 208 228 238 254 259 261 264 244 240 229 219 216 212 210 207 201 200 200 201 203 206 199 201 204 207 211 215 215 210 208 216 217 215 213 213 210 224 242 254 265 282 298 307 333
177 198 207 130 106 218 244 263 256 257 253 253 257 242 231 223 216 213 212 210 206 204 205 204 207 205 206 204 206 211 214 221 218 220 224 222 228 226 224 224 223 230 243 255 257 259 278 289 342
193 205 193 188 138 282 321 271 261 256 249 248 252 249 236 219 219 209 211 214 211 211 208 207 206 208 209 208 206 209 214 218 215 220 224 228 232 234 232 230 232 236 243 242 250 251 253 251 284
186 217 151 135 145 224 189 284 260 250 244 229 239 234 227 220 223 213 210 213 215 214 213 211 211 209 209 208 207 207 209 213 215 216 225 231 233 235 231 232 234 237 239 245 241 237 241 236 217
136 152 133 138 115 11 205 257 262 241 246 237 232 236 229 221 218 212 209 210 213 213 212 212 213 212 212 210 213 213 215 219 219 218 225 218 226 233 233 233 233 235 237 236 227 220 214 211 210
125 89 62 53 75 245 218 212 263 239 239 243 238 229 226 221 219 221 216 206 210 212 213 212 212 215 213 212 212 216 217 216 217 218 218 213 215 220 226 228 231 230 232 225 217 210 217 215 199
130 146 105 181 197 245 329 220 247 260 244 240 236 228 223 222 216 218 210 203 206 208 210 210 212 216 216 214 214 215 219 221 220 221 213 212 207 211 220 225 225 224 218 211 207 211 215 199 179
153 171 168 200 213 229 65 238 246 252 259 259 255 256 249 229 225 215 210 209 208 208 207 207 210 214 212 212 215 214 217 218 221 221 214 207 209 213 213 214 213 212 205 205 202 205 194 182 176
158 186 69 106 46 221 224 277 252 262 257 261 253 247 250 245 228 217 219 219 219 211 209 207 207 212 212 213 216 216 216 217 218 220 214 207 210 212 208 206 202 200 201 199 200 194 182 176 174
182 149 155 123 195 243 240 265 256 287 272 232 243 243 251 254 238 234 231 226 227 224 222 216 212 211 211 213 213 214 214 216 216 212 207 213 215 208 202 200 198 193 192 193 195 183 180 177 176
143 173 100 165 236 240 282 266 206 269 284 306 284 288 277 269 262 254 235 237 232 222 218 219 216 212 211 210 212 211 211 216 216 211 212 220 212 204 199 197 194 192 187 192 188 184 181 181 179
143 164 177 194 191 250 309 254 177 198 338 275 301 297 294 294 309 300 264 226 220 219 213 211 212 210 208 206 203 211 213 217 219 219 223 219 210 201 197 194 190 190 189 191 187 185 183 184 183
Height
831 829 828 828 838 834 842 843 837 841 840 839 838 839 837 839 842 852 857 858 861 864 866 868 868 869 869 870 870 870 871 872 872 871 872 872 873 872 872 873 873 873 874 874 874 874 873 872 871
830 829 829 827 839 845 839 835 840 835 838 839 841 842 840 845 850 854 857 860 863 865 867 869 869 870 870 871 871 872 873 873 873 873 874 874 874 875 874 875 876 876 877 877 877 877 876 875 874
830 829 829 832 838 841 840 835 832 839 842 840 842 844 843 849 854 855 857 860 864 866 868 870 870 871 872 873 873 873 874 874 875 875 876 876 877 877 877 878 878 879 879 879 879 879 878 878 877
830 831 832 836 840 836 834 833 833 841 843 842 839 845 848 852 855 857 859 861 864 867 869 870 871 873 873 874 874 874 875 876 877 877 878 879 879 879 880 881 881 882 882 882 882 882 881 880 879
830 830 838 840 839 836 834 834 834 839 838 840 841 846 850 854 856 857 861 863 865 868 870 872 873 874 875 876 876 876 876 877 879 879 880 881 881 882 883 883 883 884 884 884 884 883 883 883 882
831 831 841 843 837 835 833 833 833 836 839 843 842 843 851 855 856 858 862 864 867 868 871 873 875 876 877 878 878 878 878 879 880 881 882 882 883 884 884 885 886 886 886 886 885 885 885 884 884
831 834 837 837 835 836 832 833 833 833 838 840 839 845 853 857 857 859 862 865 868 870 872 874 876 878 879 880 880 880 880 880 881 883 884 884 885 885 886 886 887 887 887 887 887 887 886 886 885
830 831 839 836 837 836 833 836 833 831 837 841 841 842 851 854 857 860 863 866 868 870 872 874 877 880 882 883 883 883 883 883 883 885 885 886 887 887 887 888 888 888 888 888 888 888 888 887 886
831 836 837 835 839 831 833 835 839 838 837 840 842 840 845 851 855 859 863 866 868 870 871 874 877 880 883 885 885 886 886 886 886 887 887 888 889 890 890 889 890 890 890 890 890 889 889 888 888
829 836 836 831 830 831 832 832 837 837 839 839 842 845 848 851 854 858 862 864 867 870 871 872 875 880 883 885 887 887 887 888 888 889 889 890 890 890 890 890 891 891 891 891 891 891 890 890 890
830 832 831 835 832 833 833 835 832 832 838 828 832 839 847 850 854 857 861 864 866 868 870 872 874 879 882 884 886 887 888 888 889 889 889 890 891 891 892 892 892 892 892 892 892 892 891 890 890
832 833 831 835 835 835 834 834 833 830 822 826 827 835 843 847 851 853 858 862 865 867 869 871 873 876 879 883 884 886 888 888 889 890 889 890 892 892 892 893 893 893 893 893 892 892 891 891 890
827 833 830 833 832 836 837 834 831 830 829 830 831 836 840 843 847 852 857 860 864 866 869 869 872 875 876 879 882 884 886 887 889 889 889 890 891 892 893 892 893 893 893 893 893 892 892 891 890
821 829 827 831 833 838 836 834 836 825 826 831 834 835 838 842 843 848 854 857 861 866 867 869 870 872 875 877 879 882 884 886 887 889 889 890 891 892 893 893 893 893 893 893 893 892 891 891 890
827 832 830 829 828 838 835 834 834 826 828 829 832 833 836 840 843 844 847 852 856 862 866 868 870 871 873 876 878 879 881 883 886 888 888 889 890 891 892 893 893 893 893 892 893 892 892 891 890
829 829 834 830 828 832 836 839 826 827 829 825 828 830 834 838 838 842 843 848 852 857 861 865 868 869 872 876 878 879 880 881 883 885 887 888 888 889 891 892 893 892 892 893 892 892 892 891 890
839 834 834 831 827 828 839 834 823 831 832 823 823 827 829 833 838 838 840 843 846 851 857 861 864 867 870 873 876 878 880 880 881 883 885 885 886 888 890 891 891 891 891 891 891 891 890 890 890
836 836 836 830 830 835 834 834 829 820 831 827 823 824 826 827 831 835 838 841 843 847 852 857 861 864 867 871 873 875 877 878 879 880 881 883 884 886 887 888 889 889 890 890 890 890 890 889 889
810 820 823 829 833 834 834 830 828 821 825 825 821 822 822 822 826 831 835 839 840 843 847 850 855 859 862 865 869 871 872 874 875 876 877 879 880 882 883 884 885 886 887 887 888 888 887 887 887
819 823 824 836 839 839 831 831 819 814 815 816 813 812 815 820 821 825 829 832 833 836 840 844 848 853 856 859 863 866 868 870 871 872 873 875 877 879 880 880 881 882 883 884 885 885 885 885 885
822 823 826 833 842 845 849 836 820 806 803 805 808 806 806 811 812 817 821 825 828 830 833 837 840 846 850 854 858 861 864 866 867 867 869 872 873 875 876 877 879 880 881 881 882 883 883 884 883
835 830 831 840 844 852 843 836 799 794 794 794 800 802 800 802 805 807 812 816 819 821 828 831 835 838 842 847 850 852 855 857 859 862 863 866 869 870 872 873 874 876 877 878 879 880 881 881 882
827 831 833 844 851 857 849 855 796 792 792 785 783 788 790 790 794 797 799 803 809 816 816 821 827 831 835 839 843 845 847 850 853 854 856 859 863 865 868 869 871 872 873 874 874 875 877 879 881
830 842 851 862 866 860 839 840 790 784 783 776 772 777 779 781 784 786 790 795 801 807 810 813 817 821 826 829 833 837 840 843 846 848 850 853 856 859 863 865 867 868 870 871 873 873 874 874 877
823 834 854 858 857 830 832 826 794 770 763 763 764 765 768 770 773 778 785 789 791 795 798 803 807 810 817 820 823 826 831 836 838 841 843 845 850 853 856 859 862 864 865 868 869 870 872 874 875
826 819 822 831 825 809 839 809 779 770 764 762 766 765 763 764 767 769 773 777 779 781 786 791 796 799 806 810 812 816 821 825 829 832 836 837 840 844 848 852 856 859 861 865 866 868 869 871 873
833 827 826 830 865 830 805 790 779 771 769 770 766 763 763 761 763 765 767 770 772 774 776 779 784 790 797 800 806 809 813 816 820 825 829 831 833 837 842 847 850 854 857 861 862 864 867 869 871
810 818 828 833 830 825 785 797 780 768 757 758 760 757 755 754 760 761 763 765 768 771 775 778 780 782 787 793 797 800 805 810 815 819 821 824 828 833 837 841 846 849 853 856 860 861 865 867 870
816 818 823 815 818 806 802 774 759 762 756 757 757 759 758 758 756 757 757 762 765 765 767 771 773 775 780 785 790 794 797 804 808 811 813 817 821 826 830 836 841 846 847 850 855 858 861 864 866
803 811 808 801 818 816 809 778 763 764 765 765 761 758 756 758 757 758 755 755 757 758 759 761 765 770 772 777 783 788 790 795 801 804 807 811 814 819 823 829 836 841 842 846 849 852 857 859 862